{"data":{"norad_id":53530,"intl_designator":"2022-101D","name":"STARLINK-4482","alt_names":[],"object_type":"PAYLOAD","status":"ACTIVE","operator":null,"country":"US","launch_date":"2022-08-19","launch_site_code":"AFETR","launch_vehicle":null,"mission":null,"orbit_class":"UNKNOWN","rcs_meters":null,"size_class":null,"mass_kg":null,"dimensions":null,"purposes":["comms"],"wikipedia_slug":null,"has_3d_model":false,"image_url":null,"decayed_at":null,"tle_current":{"epoch":"2026-09-20T14:22:32.101824Z","epoch_age_seconds":69759,"freshness":"FRESH","line1":"1 53530U 22101D   26263.59898266 -.00000641  00000+0 -22157-4 0  9997","line2":"2 53530  53.1615 278.6968 0001233  62.8799 297.2318 15.08835650225580","mean_motion":15.0883565,"eccentricity":0.0001233,"inclination_deg":53.1615,"raan_deg":278.6968,"arg_perigee_deg":62.8799,"mean_anomaly_deg":297.2318,"bstar":-2.2157e-5,"rev_number":22558,"period_min":95.437829825932,"perigee_km":538.90370891442,"apogee_km":540.60966149719,"semimajor_km":6917.8936852058,"source":"CELESTRAK","updated_at":"2026-09-21T09:00:32.898568Z"}}}